This is the latest recevied weather packets stored in our database for station/object N4QEP-13. If no packets are shown the sender has not sent any weather packets the latest 10 day(s).
| Time | Temp. | Humidity | Pressure | Rain* | Wind** | Luminosity | Snow |
|---|---|---|---|---|---|---|---|
| 1777943743 | 17.22° C | 55% | 1016.1 hPa | 0 mm | - | - | - |
| 1777942817 | 17.78° C | 53% | 1016.1 hPa | 0 mm | - | - | - |
| 1777941912 | 18.33° C | 50% | 1016.2 hPa | 0 mm | - | - | - |
| 1777941010 | 19.44° C | 48% | 1016.1 hPa | 0 mm | - | - | - |
| 1777940109 | 20° C | 46% | 1016 hPa | 0 mm | - | - | - |
| 1777939208 | 21.11° C | 43% | 1016 hPa | 0 mm | - | - | - |
| 1777938308 | 21.67° C | 40% | 1016.1 hPa | 0 mm | - | - | - |
| 1777937404 | 22.22° C | 40% | 1016.1 hPa | 0 mm | - | - | - |
| 1777936504 | 22.78° C | 39% | 1016 hPa | 0 mm | - | - | - |
| 1777935603 | 23.33° C | 38% | 1016.1 hPa | 0 mm | - | - | - |
| 1777934701 | 23.89° C | 35% | 1016.2 hPa | 0 mm | - | - | - |
| 1777933831 | 25° C | 32% | 1016 hPa | 0 mm | - | - | - |
| 1777932942 | 25° C | 32% | 1016.3 hPa | 0 mm | - | - | - |
| 1777932059 | 24.44° C | 32% | 1016.3 hPa | 0 mm | - | - | - |
| 1777931168 | 25° C | 32% | 1016.1 hPa | 0 mm | - | - | - |
| 1777930272 | 25.56° C | 30% | 1016.2 hPa | 0 mm | - | - | - |
| 1777929355 | 25.56° C | 30% | 1016.4 hPa | 0 mm | - | - | - |
| 1777928454 | 25.56° C | 30% | 1016.1 hPa | 0 mm | - | - | - |
| 1777927558 | 26.11° C | 31% | 1016.2 hPa | 0 mm | - | - | - |
| 1777926651 | 26.11° C | 30% | 1016.4 hPa | 0 mm | - | - | - |
| 1777925747 | 26.11° C | 30% | 1016.4 hPa | 0 mm | - | - | - |
| 1777924844 | 26.11° C | 27% | 1016.6 hPa | 0 mm | - | - | - |
| 1777923947 | 26.67° C | 26% | 1016.7 hPa | 0 mm | - | - | - |
| 1777923012 | 26.67° C | 26% | 1016.8 hPa | 0 mm | - | - | - |
| 1777922112 | 27.22° C | 25% | 1017.1 hPa | 0 mm | - | - | - |
* Rain latest hour (hover to see other rain measurements)
** Current wind speed in m/s (hover to see current wind gust speed)